Date String (YYYY-MM-DD hh:mm:ss) UTC,Instrument flags,Ambient pressure (hPa),Sample flow (lpm),Bypass flow (lpm),Sample temperature (°C),Ambient temperature (°C),ASC tube jacket temperature (°C),LED temperature (°C),Box temperature (°C),Sample RH (%),Span deviation,Mass concentration (μg/m³),Mass concentration (μg/m³),Mass concentration (μg/m³)
DateTimeUTC,F1_M11,P_M11,Q1_M11,Q2_M11,T1_M11,T2_M11,T3_M11,T4_M11,T5_M11,U1_M11,ZSPAN_M11,X0_M11,X2_M11,X1_M11
2022-04-09 12:00:00,,0819.4,5.00,0.00,27.0,26.2,00.0,36.0,28.8,07.6,0000.0,0007.13,0002.51,0001.27
2022-04-09 12:01:00,,0819.4,5.01,0.00,27.0,26.2,00.0,35.9,28.7,07.6,0000.0,0007.40,0002.51,0001.27
2022-04-09 12:02:00,,0819.5,5.00,0.00,27.0,26.1,00.0,36.0,28.7,07.6,0000.0,0007.23,0002.46,0001.27
2022-04-09 12:03:00,,0819.5,5.00,0.00,27.0,26.2,00.0,36.0,28.7,07.6,0000.0,0007.12,0002.46,0001.27
2022-04-09 12:04:00,,0819.5,5.00,0.00,27.0,26.2,00.0,36.0,28.7,07.5,0000.0,0006.90,0002.39,0001.26
2022-04-09 12:05:00,,0819.5,5.01,0.00,27.0,26.2,00.0,36.0,28.8,07.5,0000.0,0007.43,0002.33,0001.25
2022-04-09 12:06:00,,0819.6,4.99,0.00,27.0,26.2,00.0,36.0,28.8,07.6,0000.0,0007.84,0002.34,0001.23
2022-04-09 12:07:00,,0819.5,4.99,0.00,27.0,26.2,00.0,36.0,28.7,07.6,0000.0,0007.77,0002.32,0001.23
2022-04-09 12:08:00,,0819.5,5.00,0.00,27.0,26.2,00.0,36.0,28.7,07.6,0000.0,0007.85,0002.36,0001.24
2022-04-09 12:09:00,,0819.5,5.00,0.00,27.0,26.2,00.0,36.0,28.7,07.5,0000.0,0007.75,0002.43,0001.25
2022-04-09 12:10:00,,0819.5,5.01,0.00,27.0,26.2,00.0,36.0,28.8,07.5,0000.0,0007.55,0002.40,0001.26
2022-04-09 12:11:00,,0819.5,4.99,0.00,27.0,26.1,00.0,36.0,28.8,07.5,0000.0,0007.23,0002.39,0001.25
2022-04-09 12:12:00,,0819.6,4.99,0.00,27.0,26.1,00.0,36.0,28.8,07.5,0000.0,0007.06,0002.39,0001.26
2022-04-09 12:13:00,,0819.6,5.00,0.00,27.0,26.1,00.0,36.0,28.7,07.5,0000.0,0006.96,0002.35,0001.26
2022-04-09 12:14:00,,0819.6,5.00,0.00,27.0,26.1,00.0,36.0,28.8,07.5,0000.0,0006.96,0002.34,0001.26
2022-04-09 12:15:00,,0819.6,5.00,0.00,27.0,26.1,00.0,36.0,28.7,07.5,0000.0,0007.14,0002.37,0001.25
2022-04-09 12:16:00,,0819.6,5.01,0.00,27.0,26.1,00.0,36.0,28.7,07.6,0000.0,0005.86,0002.33,0001.26
2022-04-09 12:17:00,,0819.6,5.00,0.00,27.0,26.1,00.0,36.0,28.7,07.5,0000.0,0005.19,0002.28,0001.26
2022-04-09 12:18:00,,0819.7,4.99,0.00,27.0,26.1,00.0,36.0,28.7,07.4,0000.0,0005.44,0002.25,0001.25
2022-04-09 12:19:00,,0819.7,5.00,0.00,27.0,26.1,00.0,36.0,28.7,07.5,0000.0,0006.45,0002.28,0001.25
2022-04-09 12:20:00,,0819.7,5.00,0.00,27.0,26.1,00.0,36.0,28.7,07.5,0000.0,0006.42,0002.21,0001.24
2022-04-09 12:21:00,,0819.8,5.01,0.00,26.9,26.1,00.0,36.0,28.7,07.5,0000.0,0005.61,0002.16,0001.23
2022-04-09 12:22:00,,0819.8,4.99,0.00,26.9,26.1,00.0,36.0,28.7,07.5,0000.0,0005.57,0002.15,0001.23
2022-04-09 12:23:00,,0819.8,5.00,0.00,26.9,26.1,00.0,35.9,28.7,07.5,0000.0,0005.54,0002.09,0001.22
2022-04-09 12:24:00,,0819.8,5.00,0.00,26.9,26.1,00.0,35.9,28.7,07.6,0000.0,0005.53,0002.09,0001.22
2022-04-09 12:25:00,,0819.8,5.00,0.00,26.9,26.1,00.0,35.9,28.7,07.6,0000.0,0005.57,0002.10,0001.22
2022-04-09 12:26:00,,0819.8,5.00,0.00,26.9,26.1,00.0,35.9,28.7,07.5,0000.0,0005.59,0002.14,0001.23
2022-04-09 12:27:00,,0819.8,4.99,0.00,26.9,26.0,00.0,35.9,28.7,07.5,0000.0,0005.60,0002.14,0001.23
2022-04-09 12:28:00,,0819.8,4.99,0.00,26.9,26.0,00.0,35.9,28.6,07.5,0000.0,0005.77,0002.19,0001.24
2022-04-09 12:29:00,,0819.8,5.02,0.00,26.9,26.0,00.0,35.9,28.6,07.6,0000.0,0006.12,0002.24,0001.24
2022-04-09 12:30:00,,0819.8,5.00,0.00,26.8,26.0,00.0,35.9,28.6,07.6,0000.0,0005.14,0002.23,0001.24
2022-04-09 12:31:00,,0819.7,5.00,0.00,26.8,26.0,00.0,35.9,28.6,07.5,0000.0,0004.94,0002.21,0001.25
2022-04-09 12:32:00,,0819.8,5.00,0.00,26.8,26.0,00.0,35.9,28.6,07.5,0000.0,0005.03,0002.23,0001.26
2022-04-09 12:33:00,,0819.7,5.00,0.00,26.8,26.0,00.0,35.9,28.6,07.6,0000.0,0005.02,0002.25,0001.27
2022-04-09 12:34:00,,0819.7,5.01,0.00,26.8,26.0,00.0,35.9,28.6,07.6,0000.0,0005.06,0002.32,0001.28
2022-04-09 12:35:00,,0819.6,5.00,0.00,26.8,26.0,00.0,35.8,28.6,07.6,0000.0,0005.05,0002.32,0001.29
2022-04-09 12:36:00,,0819.7,5.00,0.00,26.8,26.0,00.0,35.8,28.5,07.5,0000.0,0004.94,0002.31,0001.29
2022-04-09 12:37:00,,0819.6,5.00,0.00,26.8,26.0,00.0,35.8,28.6,07.6,0000.0,0004.91,0002.29,0001.29
2022-04-09 12:38:00,,0819.7,5.00,0.00,26.8,26.0,00.0,35.8,28.6,07.5,0000.0,0004.97,0002.32,0001.30
2022-04-09 12:39:00,,0819.7,5.01,0.00,26.8,26.0,00.0,35.8,28.6,07.5,0000.0,0004.85,0002.31,0001.31
2022-04-09 12:40:00,,0819.6,5.00,0.00,26.8,26.0,00.0,35.8,28.6,07.5,0000.0,0004.32,0002.30,0001.32
2022-04-09 12:41:00,,0819.6,5.00,0.00,26.8,26.0,00.0,35.8,28.6,07.5,0000.0,0004.37,0002.34,0001.32
2022-04-09 12:42:00,,0819.5,4.99,0.00,26.8,26.0,00.0,35.8,28.6,07.5,0000.0,0004.58,0002.41,0001.32
2022-04-09 12:43:00,,0819.5,4.99,0.00,26.8,26.0,00.0,35.8,28.6,07.4,0000.0,0004.72,0002.46,0001.33
2022-04-09 12:44:00,,0819.5,5.00,0.00,26.8,25.9,00.0,35.8,28.6,07.4,0000.0,0004.74,0002.46,0001.32
2022-04-09 12:45:00,,0819.5,5.01,0.00,26.8,25.9,00.0,35.8,28.6,07.4,0000.0,0004.64,0002.41,0001.32
2022-04-09 12:46:00,,0819.5,5.00,0.00,26.8,25.8,00.0,35.8,28.6,07.4,0000.0,0004.81,0002.42,0001.31
2022-04-09 12:47:00,,0819.5,4.99,0.00,26.8,25.8,00.0,35.8,28.6,07.4,0000.0,0004.89,0002.41,0001.31
2022-04-09 12:48:00,,0819.6,5.01,0.00,26.8,25.8,00.0,35.8,28.6,07.4,0000.0,0004.97,0002.47,0001.32
2022-04-09 12:49:00,,0819.6,5.02,0.00,26.8,25.8,00.0,35.8,28.6,07.5,0000.0,0005.00,0002.46,0001.32
2022-04-09 12:50:00,,0819.6,5.00,0.00,26.8,25.8,00.0,35.8,28.6,07.5,0000.0,0005.01,0002.46,0001.30
2022-04-09 12:51:00,,0819.6,4.99,0.00,26.8,25.8,00.0,35.8,28.6,07.4,0000.0,0005.00,0002.48,0001.30
2022-04-09 12:52:00,,0819.6,4.99,0.00,26.8,25.8,00.0,35.8,28.7,07.4,0000.0,0004.81,0002.41,0001.30
2022-04-09 12:53:00,,0819.7,5.01,0.00,26.8,25.8,00.0,35.8,28.7,07.5,0000.0,0004.55,0002.35,0001.32
2022-04-09 12:54:00,,0819.8,5.00,0.00,26.8,25.8,00.0,35.8,28.6,07.5,0000.0,0004.83,0002.36,0001.33
2022-04-09 12:55:00,,0819.7,4.99,0.00,26.8,25.8,00.0,35.8,28.6,07.6,0000.0,0004.85,0002.34,0001.34
2022-04-09 12:56:00,,0819.8,5.01,0.00,26.8,25.8,00.0,35.8,28.6,07.6,0000.0,0006.00,0002.34,0001.35
2022-04-09 12:57:00,,0819.7,5.00,0.00,26.8,25.8,00.0,35.8,28.5,07.6,0000.0,0005.96,0002.33,0001.34
2022-04-09 12:58:00,,0819.7,5.00,0.00,26.8,25.9,00.0,35.8,28.6,07.6,0000.0,0005.97,0002.34,0001.35
2022-04-09 12:59:00,,0819.7,5.00,0.00,26.8,25.8,00.0,35.8,28.5,07.6,0000.0,0006.10,0002.34,0001.34
